Погода в Летошниках

Россия / Брянская область     53°27′18″N   33°38′44″E
темп.,
°C
ветер,
м/с
пор.,
м/с
влажн.,
%
обл.,
%
осадки,
мм/ч
давл.,
гПа
погр.,
м
18 апреля, вс
вс1800:00+7юв1295100 0.4 1016217
03:00+6ююв3596100 1.8 1016363
06:00+5ююв3595100 0.8 1016552
09:00+5юв358798 0.9 1018671
12:00+9в3465100 0.1 10181344
15:00+8св3470100 0.2 1019712
18:00+9с357178 0.0 1019796
21:00+5ссв389255 0.6 1020427
19 апреля, пн
пн1900:00+5ссв4892100 0.0 1020485
03:00+6ссв4789100 0.0 1020736
06:00+6св4887100 0.0 1020687
09:00+6св5982100 0.0 1020714
12:00+8св4881100 0.0 1020917
15:00+7св5786100 0.3 1020983
18:00+5св4895100 0.1 1020757
21:00+3св4996100 0.4 1021619
20 апреля, вт
вт2000:00+3св4897100 0.1 1019519
03:00+3св3997100 0.2 1018544
06:00+4всв4897100 0.0 1016569
09:00+3св3897100 0.1 1016368
12:00+9в4777100 0.0 1013965
15:00+9всв4880100 0.1 10111018
18:00+8всв51086100 0.3 1009895
21:00+5св61294100 1.9 1006954
21 апреля, ср
ср2100:00+3ссв71597100 3.9 1001782
03:00+1с61398100 9.6 997499
06:00+2сз61298100 7.9 996327
09:00+2сз61297100 12.2 999440
12:00+3з61297100 0.4 1003708
15:00+4зюз61290100 0.4 10071100
18:00+6зюз5128531 0.1 10101138
21:00+6юз4108796 0.2 1013445
22 апреля, чт
чт2200:00+4юз4109068 0.1 1015316
03:00+3ююз389394 0.1 1017172
06:00+2ююз378982 0.0 1018133
09:00+7ю498198 0.0 1019434
12:00+11ююз577273 0.1 10201063
15:00+12ююз4568100 1.3 10201231
18:00+12ю25715 0.3 1021452
21:00+7ююв239192 0.8 102340